This is the latest recevied weather packets stored in our database for station/object KI5NXU. If no packets are shown the sender has not sent any weather packets the latest 10 day(s).
| Time | Temp. | Humidity | Pressure | Rain* | Wind** | Luminosity | Snow |
|---|---|---|---|---|---|---|---|
| 1778085725 | 15° C | 69% | 1013.9 hPa | 0 mm | - | 747 W/m² | - |
| 1778085421 | 16.11° C | 66% | 1014.1 hPa | 0 mm | - | 724 W/m² | - |
| 1778085116 | 15.56° C | 68% | 1014.4 hPa | 0 mm | - | 607 W/m² | - |
| 1778084813 | 14.44° C | 70% | 1014.3 hPa | 0 mm | - | 745 W/m² | - |
| 1778084510 | 13.89° C | 71% | 1014.8 hPa | 0 mm | - | 385 W/m² | - |
| 1778084207 | 13.89° C | 71% | 1014.6 hPa | 0 mm | - | 471 W/m² | - |
| 1778083904 | 13.33° C | 72% | 1014.6 hPa | 0 mm | - | 439 W/m² | - |
| 1778083602 | 13.33° C | 73% | 1014.6 hPa | 0 mm | - | 471 W/m² | - |
| 1778083300 | 13.33° C | 74% | 1014.1 hPa | 0 mm | - | 209 W/m² | - |
| 1778082998 | 12.78° C | 74% | 1014.2 hPa | 0 mm | - | 231 W/m² | - |
| 1778082694 | 13.33° C | 74% | 1013.9 hPa | 0 mm | - | 306 W/m² | - |
| 1778081556 | 12.78° C | 75% | 1013.8 hPa | 0 mm | - | 264 W/m² | - |
| 1778081253 | 12.78° C | 76% | 1013.5 hPa | 0 mm | - | 344 W/m² | - |
| 1778080950 | 12.78° C | 76% | 1013.5 hPa | 0 mm | - | 286 W/m² | - |
| 1778080649 | 12.22° C | 78% | 1013.5 hPa | 0 mm | - | 503 W/m² | - |
| 1778080345 | 11.67° C | 79% | 1013.9 hPa | 0 mm | - | 229 W/m² | - |
| 1778080042 | 11.67° C | 79% | 1014 hPa | 0 mm | - | 166 W/m² | - |
| 1778079739 | 11.67° C | 79% | 1014.2 hPa | 0 mm | - | 158 W/m² | - |
| 1778079436 | 11.67° C | 79% | 1014.8 hPa | 0 mm | - | 142 W/m² | - |
| 1778079133 | 11.67° C | 80% | 1015.1 hPa | 0 mm | - | 120 W/m² | - |
| 1778078830 | 11.67° C | 80% | 1015.4 hPa | 0 mm | - | 121 W/m² | - |
| 1778078527 | 11.11° C | 81% | 1015.6 hPa | 0 mm | - | 64 W/m² | - |
| 1778078224 | 11.11° C | 81% | 1015.9 hPa | 0 mm | - | 49 W/m² | - |
| 1778077922 | 11.11° C | 82% | 1015.8 hPa | 0 mm | - | 45 W/m² | - |
| 1778077621 | 11.11° C | 81% | 1016.1 hPa | 0 mm | - | 26 W/m² | - |
* Rain latest hour (hover to see other rain measurements)
** Current wind speed in m/s (hover to see current wind gust speed)